* Astronomy

Members Login
Post Info TOPIC: Comet C/2010 J4 (WISE)


L

Posts: 131433
Date:
RE: Comet C/2010 J4 (WISE)
Permalink  
 


Orbital elements:
C/2010 J4 (WISE)
T 2010 May 3.171 TT MPC
q 1.08553 (2000.0) P Q
Peri. 83.751 -0.574177 -0.791423
Node 316.404 -0.818339 +0.546839
e 1.0 Incl. 162.297 -0.025324 +0.273161
From 41 observations 2010 May 12-21.

MPEC 2010 - K52


__________________


L

Posts: 131433
Date:
Permalink  
 

Orbital elements:
C/2010 J4 (WISE)
T 2010 May 3.168 TT MPC
q 1.08551 (2000.0) P Q
Peri. 83.727 -0.574124 -0.791447
Node 316.384 -0.818375 +0.546756
e 1.0 Incl. 162.298 -0.025385 +0.273257
From 25 observations 2010 May 12-17.

MPEC 2010 - K21


__________________


L

Posts: 131433
Date:
Permalink  
 

Orbital elements:
C/2010 J4 (WISE)
T 2010 May 3.169 TT MPC
q 1.08551 (2000.0) P Q
Peri. 83.726 -0.574139 -0.791433
Node 316.381 -0.818364 +0.546769
e 1.0 Incl. 162.299 -0.025385 +0.273271
From 19 observations 2010 May 12-16.

MPEC 2010 - K06


__________________


L

Posts: 131433
Date:
Permalink  
 

Orbital elements:
C/2010 J4 (WISE)
T 2010 May 3.289 TT MPC
q 1.08599 (2000.0) P Q
Peri. 84.477 -0.576192 -0.790454
Node 316.997 -0.816973 +0.549667
e 1.0 Incl. 162.260 -0.023641 +0.270275
From 12 observations 2010 May 12-13.

MPEC 2010 - J91


Comet C/2010 J4 (WISE) was discovered by the WISE satellite observatory on the 12 May, 2010.
The preliminary orbital elements of the comet indicate a perihelion passage on the 3rd May, 2010, at a distance of 1.08 AU from the Sun.


__________________
Page 1 of 1  sorted by
Quick Reply

Please log in to post quick replies.



Create your own FREE Forum
Report Abuse
Powered by ActiveBoard